,,PA_Meas_PMT16A,,PR_Meas_QMR101_102,,RH_Meas_QMH101,,SR_Meas_QMS101,,TA_Meas_QMH101,,GenWind,,GenWind,
time,status,PA,status,PR,status,RH,status,SR,status,TA,status,DirAvg,status,SpdAvg,
2014-01-27, 00:00:04,VALID,918.314,VALID,0,VALID,94.8734,VALID,0,VALID,19.8993,VALID,145,VALID,0.580469,
2014-01-27, 00:01:04,VALID,918.323,VALID,0,VALID,94.9192,VALID,0,VALID,19.8588,VALID,145,VALID,0.727344,
2014-01-27, 00:02:04,VALID,918.297,VALID,0,VALID,94.9496,VALID,0,VALID,19.8588,VALID,145,VALID,0.559375,
2014-01-27, 00:03:04,VALID,918.316,VALID,0,VALID,95.0183,VALID,0,VALID,19.8993,VALID,145,VALID,0.932031,
2014-01-27, 00:04:04,VALID,918.285,VALID,0,VALID,95.0411,VALID,0,VALID,19.8588,VALID,121,VALID,0.510547,
2014-01-27, 00:05:04,VALID,918.283,VALID,0,VALID,95.0335,VALID,0,VALID,19.8408,VALID,116,VALID,0.642187,
2014-01-27, 00:06:04,VALID,918.282,VALID,0,VALID,95.0488,VALID,0,VALID,19.8393,VALID,116,VALID,0.770312,
2014-01-27, 00:07:04,VALID,918.263,VALID,0,VALID,95.125,VALID,0,VALID,19.8603,VALID,116,VALID,0.783203,
2014-01-27, 00:08:04,VALID,918.251,VALID,0,VALID,95.1936,VALID,0,VALID,19.8603,VALID,116,VALID,0.941406,
2014-01-27, 00:09:04,VALID,918.218,VALID,0,VALID,95.2241,VALID,0,VALID,19.8798,VALID,116,VALID,0.667969,
2014-01-27, 00:10:04,VALID,918.211,VALID,0,VALID,95.2698,VALID,0,VALID,19.8393,VALID,120,VALID,0.877344,
2014-01-27, 00:11:04,VALID,918.178,VALID,0,VALID,95.2546,VALID,0,VALID,19.8408,VALID,121,VALID,0.590234,
2014-01-27, 00:12:04,VALID,918.202,VALID,0,VALID,95.1174,VALID,0,VALID,19.7598,VALID,138,VALID,0.944531,
2014-01-27, 00:13:04,VALID,918.148,VALID,0,VALID,94.9954,VALID,0,VALID,19.7223,VALID,139,VALID,0.721875,
2014-01-27, 00:14:04,VALID,918.151,VALID,0,VALID,94.9801,VALID,0,VALID,19.7433,VALID,139,VALID,1.06602,
2014-01-27, 00:15:04,VALID,918.127,VALID,0,VALID,94.9878,VALID,0,VALID,19.6833,VALID,150,VALID,0.88125,
2014-01-27, 00:16:04,VALID,918.104,VALID,0,VALID,95.064,VALID,0,VALID,19.6638,VALID,150,VALID,1.15898,
2014-01-27, 00:17:04,VALID,918.082,VALID,0,VALID,95.2088,VALID,0,VALID,19.6833,VALID,150,VALID,1.12305,
2014-01-27, 00:18:04,VALID,918.07,VALID,0,VALID,95.3003,VALID,0,VALID,19.6848,VALID,150,VALID,0.902734,
2014-01-27, 00:19:04,VALID,918.075,VALID,0,VALID,95.4071,VALID,0,VALID,19.6638,VALID,150,VALID,1.03594,
2014-01-27, 00:20:04,VALID,918.045,VALID,0,VALID,95.5443,VALID,0,VALID,19.7043,VALID,150,VALID,0.476953,
2014-01-27, 00:21:04,VALID,918.06,VALID,0,VALID,95.651,VALID,0,VALID,19.6848,VALID,150,VALID,0.877344,
2014-01-27, 00:22:04,VALID,918.065,VALID,0,VALID,95.7196,VALID,0,VALID,19.6653,VALID,164,VALID,0.960547,
2014-01-27, 00:23:04,VALID,918.058,VALID,0,VALID,95.773,VALID,0,VALID,19.6458,VALID,163,VALID,0.85625,
2014-01-27, 00:24:04,VALID,918.054,VALID,0,VALID,95.8416,VALID,0,VALID,19.6053,VALID,163,VALID,1.03789,
2014-01-27, 00:25:04,VALID,918.06,VALID,0,VALID,95.9178,VALID,0,VALID,19.6263,VALID,156,VALID,1.01172,
2014-01-27, 00:26:04,VALID,918.052,VALID,0,VALID,96.0017,VALID,0,VALID,19.6458,VALID,159,VALID,0.837109,
2014-01-27, 00:27:04,VALID,918.06,VALID,0,VALID,96.0627,VALID,0,VALID,19.6638,VALID,159,VALID,1.23438,
2014-01-27, 00:28:04,VALID,918.056,VALID,0,VALID,96.1465,VALID,0,VALID,19.7238,VALID,167,VALID,1.13711,
2014-01-27, 00:29:04,VALID,918.061,VALID,0,VALID,96.2151,VALID,0,VALID,19.7433,VALID,165,VALID,0.922266,
2014-01-27, 00:30:04,VALID,918.053,VALID,0,VALID,96.2609,VALID,0,VALID,19.7628,VALID,171,VALID,0.698438,
2014-01-27, 00:31:04,VALID,918.053,VALID,0,VALID,96.2533,VALID,0,VALID,19.7613,VALID,161,VALID,1.14688,
2014-01-27, 00:32:04,VALID,918.019,VALID,0,VALID,96.2837,VALID,0,VALID,19.7823,VALID,166,VALID,1.2125,
2014-01-27, 00:33:04,VALID,918.027,VALID,0,VALID,96.2685,VALID,0,VALID,19.7823,VALID,158,VALID,0.967578,
2014-01-27, 00:34:04,VALID,918.041,VALID,0,VALID,96.2685,VALID,0,VALID,19.7613,VALID,159,VALID,0.660547,
2014-01-27, 00:35:04,VALID,918.064,VALID,0,VALID,96.2685,VALID,0,VALID,19.8018,VALID,172,VALID,1.18633,
2014-01-27, 00:36:04,VALID,918.034,VALID,0,VALID,96.2533,VALID,0.107441,VALID,19.7808,VALID,175,VALID,1.3375,
2014-01-27, 00:37:04,VALID,918.084,VALID,0,VALID,96.2075,VALID,0,VALID,19.7808,VALID,172,VALID,1.3043,
2014-01-27, 00:38:04,VALID,918.095,VALID,0,VALID,96.2228,VALID,0,VALID,19.8393,VALID,167,VALID,0.796094,
2014-01-27, 00:39:04,VALID,918.06,VALID,0,VALID,96.2151,VALID,0,VALID,19.8588,VALID,170,VALID,1.27188,
2014-01-27, 00:40:04,VALID,918.089,VALID,0,VALID,96.1923,VALID,0,VALID,19.8588,VALID,171,VALID,0.717969,
2014-01-27, 00:41:04,VALID,918.068,VALID,0,VALID,96.1618,VALID,0,VALID,19.8588,VALID,171,VALID,0.807031,
2014-01-27, 00:42:04,VALID,918.044,VALID,0,VALID,96.1465,VALID,0,VALID,19.8783,VALID,171,VALID,0.439063,
2014-01-27, 00:43:04,VALID,918.01,VALID,0,VALID,96.1008,VALID,0,VALID,19.8798,VALID,171,VALID,0.659766,
2014-01-27, 00:44:04,VALID,918.018,VALID,0,VALID,96.0627,VALID,0,VALID,19.8603,VALID,171,VALID,0.955078,
2014-01-27, 00:45:04,VALID,918.015,VALID,0,VALID,96.0169,VALID,0,VALID,19.8588,VALID,173,VALID,0.570703,
2014-01-27, 00:46:04,VALID,918.031,VALID,0,VALID,95.9788,VALID,0,VALID,19.8393,VALID,173,VALID,1.0707,
2014-01-27, 00:47:04,VALID,918.042,VALID,0,VALID,95.9331,VALID,0,VALID,19.8393,VALID,177,VALID,0.548828,
2014-01-27, 00:48:04,VALID,918.051,VALID,0,VALID,95.895,VALID,0.107441,VALID,19.8198,VALID,167,VALID,0.778906,
2014-01-27, 00:49:04,VALID,918.024,VALID,0,VALID,95.834,VALID,0,VALID,19.7988,VALID,158,VALID,0.485938,
2014-01-27, 00:50:04,VALID,918,VALID,0,VALID,95.8035,VALID,0.107441,VALID,19.8408,VALID,163,VALID,0.583203,
2014-01-27, 00:51:04,VALID,918.04,VALID,0,VALID,95.7958,VALID,0,VALID,19.7988,VALID,167,VALID,0.978516,
2014-01-27, 00:52:04,VALID,917.997,VALID,0,VALID,95.7958,VALID,0,VALID,19.9008,VALID,147,VALID,1.01406,
2014-01-27, 00:53:04,VALID,918.027,VALID,0,VALID,95.773,VALID,0.107441,VALID,19.8393,VALID,177,VALID,0.374609,
2014-01-27, 00:54:04,VALID,918.017,VALID,0,VALID,95.7349,VALID,0.107441,VALID,19.8603,VALID,176,VALID,0.324219,
2014-01-27, 00:55:04,VALID,918.046,VALID,0,VALID,95.6739,VALID,0.107441,VALID,19.8408,VALID,167,VALID,0.850781,
2014-01-27, 00:56:04,VALID,918,VALID,0,VALID,95.6434,VALID,0,VALID,19.8423,VALID,170,VALID,0.933984,
2014-01-27, 00:57:04,VALID,917.99,VALID,0,VALID,95.6434,VALID,0,VALID,19.8423,VALID,178,VALID,0.617578,
2014-01-27, 00:58:04,VALID,917.941,VALID,0,VALID,95.59,VALID,0,VALID,19.8033,VALID,163,VALID,0.73125,
2014-01-27, 00:59:04,VALID,917.941,VALID,0,VALID,95.5671,VALID,0,VALID,19.8048,VALID,146,VALID,0.976563,
2014-01-27, 01:00:04,VALID,917.909,VALID,0,VALID,95.5595,VALID,0,VALID,19.6803,VALID,142,VALID,1.37188,
2014-01-27, 01:01:04,VALID,917.883,VALID,0,VALID,95.5748,VALID,0,VALID,19.7433,VALID,142,VALID,1.56562,
2014-01-27, 01:02:04,VALID,917.882,VALID,0,VALID,95.6434,VALID,0.107441,VALID,19.6998,VALID,137,VALID,1.475,
2014-01-27, 01:03:04,VALID,917.874,VALID,0,VALID,95.6739,VALID,0,VALID,19.6998,VALID,145,VALID,1.68594,
2014-01-27, 01:04:04,VALID,917.859,VALID,0,VALID,95.6586,VALID,0,VALID,19.7208,VALID,134,VALID,1.40977,
2014-01-27, 01:05:04,VALID,917.853,VALID,0,VALID,95.6662,VALID,0,VALID,19.7598,VALID,147,VALID,1.45273,
2014-01-27, 01:06:04,VALID,917.857,VALID,0,VALID,95.6891,VALID,0,VALID,19.8633,VALID,145,VALID,1.47227,
2014-01-27, 01:07:04,VALID,917.851,VALID,0,VALID,95.7044,VALID,0,VALID,19.8408,VALID,146,VALID,1.38555,
2014-01-27, 01:08:04,VALID,917.849,VALID,0,VALID,95.6662,VALID,0,VALID,19.8828,VALID,165,VALID,1.47812,
2014-01-27, 01:09:05,VALID,917.855,VALID,0,VALID,95.6281,VALID,0,VALID,19.8813,VALID,157,VALID,1.19883,
2014-01-27, 01:10:05,VALID,917.868,VALID,0,VALID,95.5671,VALID,0.107441,VALID,19.7988,VALID,164,VALID,1.37031,
2014-01-27, 01:11:05,VALID,917.812,VALID,0,VALID,95.4757,VALID,0,VALID,19.7388,VALID,148,VALID,1.18828,
2014-01-27, 01:12:05,VALID,917.828,VALID,0,VALID,95.4528,VALID,0,VALID,19.8228,VALID,174,VALID,0.990625,
2014-01-27, 01:13:05,VALID,917.801,VALID,0,VALID,95.4452,VALID,0.107441,VALID,19.8423,VALID,148,VALID,0.921484,
2014-01-27, 01:14:05,VALID,917.79,VALID,0,VALID,95.4071,VALID,0.107441,VALID,19.8018,VALID,144,VALID,1.38164,
2014-01-27, 01:15:05,VALID,917.793,VALID,0,VALID,95.3918,VALID,0.107441,VALID,19.7823,VALID,143,VALID,0.935156,
2014-01-27, 01:16:05,VALID,917.799,VALID,0,VALID,95.3613,VALID,0.107441,VALID,19.7223,VALID,162,VALID,0.489844,
2014-01-27, 01:17:05,VALID,917.796,VALID,0,VALID,95.3689,VALID,0.107441,VALID,19.7238,VALID,164,VALID,0.700391,
2014-01-27, 01:18:05,VALID,917.778,VALID,0,VALID,95.3689,VALID,0,VALID,19.7043,VALID,144,VALID,1.03203,
2014-01-27, 01:19:05,VALID,917.745,VALID,0,VALID,95.3537,VALID,0,VALID,19.6413,VALID,131,VALID,1.21406,
2014-01-27, 01:20:05,VALID,917.73,VALID,0,VALID,95.3384,VALID,0,VALID,19.7043,VALID,131,VALID,0.766016,
2014-01-27, 01:21:05,VALID,917.714,VALID,0,VALID,95.3079,VALID,0.107441,VALID,19.7043,VALID,125,VALID,0.748438,
2014-01-27, 01:22:05,VALID,917.713,VALID,0,VALID,95.2546,VALID,0,VALID,19.7058,VALID,150,VALID,0.637891,
2014-01-27, 01:23:05,VALID,917.681,VALID,0,VALID,95.2317,VALID,0,VALID,19.6428,VALID,135,VALID,0.698047,
2014-01-27, 01:24:05,VALID,917.699,VALID,0,VALID,95.1707,VALID,0.107441,VALID,19.6653,VALID,130,VALID,1.1207,
2014-01-27, 01:25:05,VALID,917.674,VALID,0,VALID,95.1707,VALID,0,VALID,19.6638,VALID,137,VALID,1.6957,
2014-01-27, 01:26:05,VALID,917.643,VALID,0,VALID,95.1402,VALID,0,VALID,19.6443,VALID,146,VALID,1.28242,
2014-01-27, 01:27:05,VALID,917.641,VALID,0,VALID,95.1021,VALID,0.107441,VALID,19.6863,VALID,140,VALID,1.06211,
2014-01-27, 01:28:05,VALID,917.592,VALID,0,VALID,95.0488,VALID,0,VALID,19.6458,VALID,134,VALID,1.31875,
2014-01-27, 01:29:05,VALID,917.591,VALID,0,VALID,95.0335,VALID,0,VALID,19.6248,VALID,142,VALID,1.35547,
2014-01-27, 01:30:05,VALID,917.547,VALID,0,VALID,95.003,VALID,0,VALID,19.6263,VALID,138,VALID,1.0168,
2014-01-27, 01:31:05,VALID,917.538,VALID,0,VALID,94.9954,VALID,0,VALID,19.6263,VALID,128,VALID,0.810547,
2014-01-27, 01:32:05,VALID,917.496,VALID,0,VALID,94.9878,VALID,0,VALID,19.6263,VALID,134,VALID,1.08984,
2014-01-27, 01:33:05,VALID,917.5,VALID,0,VALID,95.0488,VALID,0,VALID,19.6038,VALID,129,VALID,1.34336,
2014-01-27, 01:34:05,VALID,917.499,VALID,0,VALID,95.0792,VALID,0,VALID,19.6248,VALID,131,VALID,1.18984,
2014-01-27, 01:35:05,VALID,917.457,VALID,0,VALID,95.1097,VALID,0,VALID,19.6263,VALID,133,VALID,1.18984,
2014-01-27, 01:36:05,VALID,917.406,VALID,0,VALID,95.1021,VALID,0,VALID,19.5858,VALID,129,VALID,1.06562,
2014-01-27, 01:37:05,VALID,917.385,VALID,0,VALID,95.0564,VALID,0,VALID,19.5648,VALID,122,VALID,1.02031,
2014-01-27, 01:38:05,VALID,917.362,VALID,0,VALID,95.0335,VALID,0,VALID,19.5678,VALID,132,VALID,1.00469,
2014-01-27, 01:39:05,VALID,917.345,VALID,0,VALID,95.0716,VALID,0,VALID,19.5483,VALID,135,VALID,1.26211,
2014-01-27, 01:40:05,VALID,917.319,VALID,0,VALID,95.1097,VALID,0,VALID,19.5288,VALID,128,VALID,1.28555,
2014-01-27, 01:41:05,VALID,917.288,VALID,0,VALID,95.1936,VALID,0,VALID,19.5093,VALID,130,VALID,1.1668,
2014-01-27, 01:42:05,VALID,917.297,VALID,0,VALID,95.2165,VALID,0,VALID,19.4883,VALID,133,VALID,0.999609,
2014-01-27, 01:43:05,VALID,917.306,VALID,0,VALID,95.2622,VALID,0,VALID,19.5093,VALID,136,VALID,0.944141,
2014-01-27, 01:44:05,VALID,917.287,VALID,0,VALID,95.3537,VALID,0,VALID,19.5498,VALID,144,VALID,0.855078,
2014-01-27, 01:45:05,VALID,917.284,VALID,0,VALID,95.3918,VALID,0,VALID,19.5078,VALID,145,VALID,0.720312,
2014-01-27, 01:46:05,VALID,917.266,VALID,0,VALID,95.4299,VALID,0,VALID,19.5288,VALID,155,VALID,1.00586,
2014-01-27, 01:47:05,VALID,917.209,VALID,0,VALID,95.4833,VALID,0,VALID,19.5888,VALID,137,VALID,1.04609,
2014-01-27, 01:48:05,VALID,917.206,VALID,0,VALID,95.5138,VALID,0,VALID,19.6098,VALID,166,VALID,0.580078,
2014-01-27, 01:49:05,VALID,917.189,VALID,0,VALID,95.4985,VALID,0,VALID,19.5693,VALID,166,VALID,0.878906,
2014-01-27, 01:50:05,VALID,917.195,VALID,0,VALID,95.5062,VALID,0,VALID,19.5258,VALID,165,VALID,0.773828,
2014-01-27, 01:51:05,VALID,917.204,VALID,0,VALID,95.5214,VALID,0,VALID,19.6293,VALID,172,VALID,1.08633,
2014-01-27, 01:52:05,VALID,917.183,VALID,0,VALID,95.5138,VALID,0,VALID,19.5663,VALID,175,VALID,0.755469,
2014-01-27, 01:53:05,VALID,917.17,VALID,0,VALID,95.5595,VALID,0,VALID,19.6263,VALID,178,VALID,0.761719,
2014-01-27, 01:54:05,VALID,917.163,VALID,0,VALID,95.5519,VALID,0,VALID,19.5858,VALID,166,VALID,0.808594,
2014-01-27, 01:55:05,VALID,917.143,VALID,0,VALID,95.5138,VALID,0,VALID,19.6263,VALID,166,VALID,0.578125,
2014-01-27, 01:56:05,VALID,917.137,VALID,0,VALID,95.468,VALID,0,VALID,19.5858,VALID,170,VALID,0.823438,
2014-01-27, 01:57:05,VALID,917.121,VALID,0,VALID,95.468,VALID,0,VALID,19.6068,VALID,173,VALID,0.717578,
2014-01-27, 01:58:05,VALID,917.11,VALID,0,VALID,95.4147,VALID,0,VALID,19.5873,VALID,173,VALID,0.557422,
2014-01-27, 01:59:05,VALID,917.122,VALID,0,VALID,95.4071,VALID,0,VALID,19.5663,VALID,171,VALID,0.788672,
2014-01-27, 02:00:05,VALID,917.066,VALID,0,VALID,95.4147,VALID,0,VALID,19.6083,VALID,163,VALID,1.21602,
2014-01-27, 02:01:05,VALID,917.063,VALID,0,VALID,95.3766,VALID,0,VALID,19.5258,VALID,163,VALID,0.7625,
2014-01-27, 02:02:05,VALID,917.039,VALID,0,VALID,95.3384,VALID,0,VALID,19.5078,VALID,165,VALID,1.0375,
2014-01-27, 02:03:05,VALID,917,VALID,0,VALID,95.3308,VALID,0,VALID,19.4868,VALID,165,VALID,0.983203,
2014-01-27, 02:04:05,VALID,917,VALID,0,VALID,95.3156,VALID,0,VALID,19.5903,VALID,169,VALID,0.819531,
2014-01-27, 02:05:05,VALID,916.964,VALID,0,VALID,95.2851,VALID,0,VALID,19.5317,VALID,159,VALID,0.855078,
2014-01-27, 02:06:05,VALID,916.938,VALID,0,VALID,95.3003,VALID,0,VALID,19.4898,VALID,153,VALID,1.14141,
2014-01-27, 02:07:05,VALID,916.877,VALID,0,VALID,95.2775,VALID,0,VALID,19.4508,VALID,156,VALID,0.7875,
2014-01-27, 02:08:05,VALID,916.895,VALID,0,VALID,95.3384,VALID,0,VALID,19.5078,VALID,144,VALID,2.0207,
2014-01-27, 02:09:05,VALID,916.87,VALID,0,VALID,95.3003,VALID,0,VALID,19.5483,VALID,145,VALID,1.57617,
2014-01-27, 02:10:05,VALID,916.844,VALID,0,VALID,95.2165,VALID,0,VALID,19.5498,VALID,160,VALID,1.29648,
2014-01-27, 02:11:05,VALID,916.828,VALID,0,VALID,95.1479,VALID,0,VALID,19.4868,VALID,144,VALID,1.31094,
2014-01-27, 02:12:05,VALID,916.835,VALID,0,VALID,95.1402,VALID,0,VALID,19.4883,VALID,148,VALID,1.25977,
2014-01-27, 02:13:05,VALID,916.809,VALID,0,VALID,95.1326,VALID,0,VALID,19.4688,VALID,152,VALID,1.16172,
2014-01-27, 02:14:05,VALID,916.815,VALID,0,VALID,95.1707,VALID,0,VALID,19.4898,VALID,168,VALID,1.44883,
2014-01-27, 02:15:05,VALID,916.805,VALID,0,VALID,95.186,VALID,0,VALID,19.4718,VALID,159,VALID,1.03711,
2014-01-27, 02:16:05,VALID,916.804,VALID,0,VALID,95.2317,VALID,0,VALID,19.4703,VALID,144,VALID,1.45313,
2014-01-27, 02:17:05,VALID,916.777,VALID,0,VALID,95.2317,VALID,0,VALID,19.5108,VALID,145,VALID,0.444922,
2014-01-27, 02:18:05,VALID,916.789,VALID,0,VALID,95.2393,VALID,0,VALID,19.4283,VALID,144,VALID,0.848437,
2014-01-27, 02:19:05,VALID,916.776,VALID,0,VALID,95.2088,VALID,0,VALID,19.3698,VALID,126,VALID,0.707422,
2014-01-27, 02:20:05,VALID,916.717,VALID,0,VALID,95.2317,VALID,0,VALID,19.3323,VALID,107,VALID,1.23828,
2014-01-27, 02:21:05,VALID,916.704,VALID,0,VALID,95.2241,VALID,0,VALID,19.2962,VALID,126,VALID,1.32734,
2014-01-27, 02:22:05,VALID,916.711,VALID,0,VALID,95.2698,VALID,0,VALID,19.2334,VALID,141,VALID,0.855078,
2014-01-27, 02:23:05,VALID,916.665,VALID,0,VALID,95.3461,VALID,0,VALID,19.3187,VALID,142,VALID,1.18359,
2014-01-27, 02:24:05,VALID,916.69,VALID,0,VALID,95.4757,VALID,0,VALID,19.2767,VALID,137,VALID,1.20195,
2014-01-27, 02:25:05,VALID,916.694,VALID,0,VALID,95.5519,VALID,0,VALID,19.2348,VALID,140,VALID,1.35625,
2014-01-27, 02:26:05,VALID,916.702,VALID,0,VALID,95.6129,VALID,0,VALID,19.2348,VALID,150,VALID,1.23281,
2014-01-27, 02:27:05,VALID,916.704,VALID,0,VALID,95.6815,VALID,0,VALID,19.2348,VALID,147,VALID,1.02305,
2014-01-27, 02:28:05,VALID,916.691,VALID,0,VALID,95.7044,VALID,0,VALID,19.2572,VALID,143,VALID,1.59297,
2014-01-27, 02:29:05,VALID,916.698,VALID,0,VALID,95.7272,VALID,0,VALID,19.2572,VALID,149,VALID,1.20313,
2014-01-27, 02:30:05,VALID,916.672,VALID,0,VALID,95.7501,VALID,0,VALID,19.2153,VALID,141,VALID,1.09453,
2014-01-27, 02:31:05,VALID,916.667,VALID,0,VALID,95.773,VALID,0,VALID,19.2572,VALID,153,VALID,1.04336,
2014-01-27, 02:32:05,VALID,916.645,VALID,0,VALID,95.7882,VALID,0,VALID,19.2153,VALID,151,VALID,1.38516,
2014-01-27, 02:33:05,VALID,916.607,VALID,0,VALID,95.8187,VALID,0,VALID,19.1929,VALID,143,VALID,1.16953,
2014-01-27, 02:34:05,VALID,916.62,VALID,0,VALID,95.8111,VALID,0,VALID,19.2782,VALID,147,VALID,0.998828,
2014-01-27, 02:35:05,VALID,916.618,VALID,0,VALID,95.8416,VALID,0,VALID,19.2558,VALID,144,VALID,0.566016,
2014-01-27, 02:36:05,VALID,916.602,VALID,0,VALID,95.8035,VALID,0,VALID,19.2348,VALID,143,VALID,0.950391,
2014-01-27, 02:37:05,VALID,916.61,VALID,0,VALID,95.7806,VALID,0,VALID,19.2153,VALID,145,VALID,0.85,
2014-01-27, 02:38:05,VALID,916.594,VALID,0,VALID,95.7806,VALID,0,VALID,19.2377,VALID,155,VALID,1.32734,
2014-01-27, 02:39:05,VALID,916.591,VALID,0,VALID,95.8035,VALID,0,VALID,19.1554,VALID,164,VALID,1.13633,
2014-01-27, 02:40:05,VALID,916.591,VALID,0,VALID,95.8492,VALID,0,VALID,19.2377,VALID,152,VALID,1.41641,
2014-01-27, 02:41:05,VALID,916.588,VALID,0,VALID,95.895,VALID,0,VALID,19.2168,VALID,145,VALID,1.30547,
2014-01-27, 02:42:05,VALID,916.574,VALID,0,VALID,95.9178,VALID,0,VALID,19.1554,VALID,134,VALID,1.33633,
2014-01-27, 02:43:05,VALID,916.573,VALID,0,VALID,95.9331,VALID,0,VALID,19.2168,VALID,143,VALID,1.2918,
2014-01-27, 02:44:05,VALID,916.551,VALID,0,VALID,95.9864,VALID,0,VALID,19.1763,VALID,136,VALID,0.712891,
2014-01-27, 02:45:05,VALID,916.53,VALID,0,VALID,95.9941,VALID,0,VALID,19.1554,VALID,138,VALID,0.886328,
2014-01-27, 02:46:05,VALID,916.544,VALID,0,VALID,95.9864,VALID,0,VALID,19.2182,VALID,135,VALID,0.871484,
2014-01-27, 02:47:05,VALID,916.509,VALID,0,VALID,96.0169,VALID,0,VALID,19.1973,VALID,128,VALID,1.29766,
2014-01-27, 02:48:05,VALID,916.518,VALID,0,VALID,96.0245,VALID,0,VALID,19.2363,VALID,126,VALID,1.325,
2014-01-27, 02:49:05,VALID,916.519,VALID,0,VALID,96.0627,VALID,0,VALID,19.2377,VALID,140,VALID,0.8625,
2014-01-27, 02:50:05,VALID,916.508,VALID,0,VALID,96.0779,VALID,0,VALID,19.2363,VALID,136,VALID,0.641797,
2014-01-27, 02:51:05,VALID,916.493,VALID,0,VALID,96.1008,VALID,0,VALID,19.2767,VALID,144,VALID,1.09922,
2014-01-27, 02:52:05,VALID,916.528,VALID,0,VALID,96.1313,VALID,0,VALID,19.2753,VALID,144,VALID,1.48867,
2014-01-27, 02:53:05,VALID,916.473,VALID,0,VALID,96.1618,VALID,0,VALID,19.2948,VALID,131,VALID,1.21328,
2014-01-27, 02:54:05,VALID,916.535,VALID,0,VALID,96.177,VALID,0,VALID,19.2948,VALID,139,VALID,1.31914,
2014-01-27, 02:55:05,VALID,916.526,VALID,0,VALID,96.1694,VALID,0,VALID,19.3157,VALID,155,VALID,0.297266,
2014-01-27, 02:56:05,VALID,916.513,VALID,0,VALID,96.116,VALID,0,VALID,19.2753,VALID,155,VALID,0.0855469,
2014-01-27, 02:57:05,VALID,916.496,VALID,0,VALID,96.0779,VALID,0,VALID,19.2543,VALID,118,VALID,0.798047,
2014-01-27, 02:58:05,VALID,916.466,VALID,0,VALID,96.0322,VALID,0,VALID,19.2753,VALID,127,VALID,0.732813,
2014-01-27, 02:59:05,VALID,916.492,VALID,0,VALID,95.9941,VALID,0,VALID,19.2348,VALID,133,VALID,0.689453,
2014-01-27, 03:00:05,VALID,916.463,VALID,0,VALID,95.9712,VALID,0,VALID,19.2572,VALID,134,VALID,0.980469,
2014-01-27, 03:01:05,VALID,916.462,VALID,0,VALID,95.9331,VALID,0,VALID,19.2377,VALID,141,VALID,0.524609,
2014-01-27, 03:02:05,VALID,916.462,VALID,0,VALID,95.9102,VALID,0,VALID,19.1944,VALID,140,VALID,0.416016,
2014-01-27, 03:03:05,VALID,916.423,VALID,0,VALID,95.8645,VALID,0,VALID,19.1973,VALID,138,VALID,0.68125,
2014-01-27, 03:04:05,VALID,916.417,VALID,0,VALID,95.8492,VALID,0,VALID,19.1987,VALID,137,VALID,1.10391,
2014-01-27, 03:05:05,VALID,916.4,VALID,0,VALID,95.8568,VALID,0,VALID,19.1583,VALID,137,VALID,0.814062,
2014-01-27, 03:06:05,VALID,916.373,VALID,0,VALID,95.8492,VALID,0,VALID,19.0998,VALID,134,VALID,0.837109,
2014-01-27, 03:07:05,VALID,916.361,VALID,0,VALID,95.7882,VALID,0,VALID,19.0608,VALID,131,VALID,0.69375,
2014-01-27, 03:08:05,VALID,916.364,VALID,0,VALID,95.8645,VALID,0,VALID,19.1012,VALID,131,VALID,1.51211,
2014-01-27, 03:09:05,VALID,916.34,VALID,0,VALID,95.9941,VALID,0,VALID,19.1193,VALID,128,VALID,1.09414,
2014-01-27, 03:10:05,VALID,916.394,VALID,0,VALID,96.055,VALID,0,VALID,19.1597,VALID,169,VALID,0.266406,
2014-01-27, 03:11:05,VALID,916.371,VALID,0,VALID,96.0932,VALID,0,VALID,19.1792,VALID,136,VALID,1.12539,
2014-01-27, 03:12:05,VALID,916.39,VALID,0,VALID,96.1084,VALID,0,VALID,19.1792,VALID,136,VALID,0.619141,
2014-01-27, 03:13:05,VALID,916.382,VALID,0,VALID,96.0932,VALID,0,VALID,19.1388,VALID,134,VALID,0.720703,
2014-01-27, 03:14:05,VALID,916.344,VALID,0,VALID,96.1008,VALID,0,VALID,19.1193,VALID,121,VALID,0.795703,
2014-01-27, 03:15:05,VALID,916.362,VALID,0,VALID,96.0855,VALID,0,VALID,19.0983,VALID,120,VALID,1.04453,
2014-01-27, 03:16:05,VALID,916.296,VALID,0,VALID,96.0703,VALID,0,VALID,19.0384,VALID,120,VALID,0.995313,
2014-01-27, 03:17:05,VALID,916.303,VALID,0,VALID,96.055,VALID,0,VALID,19.0413,VALID,120,VALID,0.830078,
2014-01-27, 03:18:05,VALID,916.329,VALID,0,VALID,96.0855,VALID,0,VALID,19.0203,VALID,120,VALID,0.735937,
2014-01-27, 03:19:05,VALID,916.307,VALID,0,VALID,96.0779,VALID,0,VALID,19.0427,VALID,120,VALID,0.983594,
2014-01-27, 03:20:05,VALID,916.307,VALID,0,VALID,96.0779,VALID,0,VALID,18.92,VALID,120,VALID,0.812109,
2014-01-27, 03:21:05,VALID,916.301,VALID,0,VALID,96.0703,VALID,0,VALID,18.9647,VALID,120,VALID,0.947266,
2014-01-27, 03:22:05,VALID,916.273,VALID,0,VALID,96.0474,VALID,0,VALID,18.8839,VALID,120,VALID,0.873828,
2014-01-27, 03:23:05,VALID,916.253,VALID,0,VALID,96.0627,VALID,0,VALID,18.8867,VALID,120,VALID,0.801172,
2014-01-27, 03:24:05,VALID,916.226,VALID,0,VALID,96.0627,VALID,0,VALID,18.8672,VALID,120,VALID,1.1207,
2014-01-27, 03:25:05,VALID,916.256,VALID,0,VALID,96.1084,VALID,0,VALID,18.8254,VALID,120,VALID,0.858203,
2014-01-27, 03:26:05,VALID,916.235,VALID,0,VALID,96.1618,VALID,0,VALID,18.8867,VALID,117,VALID,1.51289,
2014-01-27, 03:27:05,VALID,916.272,VALID,0,VALID,96.1923,VALID,0,VALID,18.8463,VALID,112,VALID,1.02617,
2014-01-27, 03:28:05,VALID,916.277,VALID,0,VALID,96.2075,VALID,0,VALID,18.8254,VALID,116,VALID,0.786719,
2014-01-27, 03:29:05,VALID,916.294,VALID,0,VALID,96.2151,VALID,0,VALID,18.8463,VALID,119,VALID,1.2207,
2014-01-27, 03:30:05,VALID,916.264,VALID,0,VALID,96.2456,VALID,0,VALID,18.7835,VALID,119,VALID,0.948438,
2014-01-27, 03:31:05,VALID,916.309,VALID,0,VALID,96.238,VALID,0,VALID,18.8073,VALID,122,VALID,0.907031,
2014-01-27, 03:32:05,VALID,916.299,VALID,0,VALID,96.2456,VALID,0.107441,VALID,18.746,VALID,123,VALID,1.02148,
2014-01-27, 03:33:05,VALID,916.3,VALID,0,VALID,96.2609,VALID,0,VALID,18.7683,VALID,138,VALID,0.646875,
2014-01-27, 03:34:05,VALID,916.287,VALID,0,VALID,96.2914,VALID,0,VALID,18.746,VALID,150,VALID,0.716406,
2014-01-27, 03:35:05,VALID,916.293,VALID,0,VALID,96.3219,VALID,0,VALID,18.8282,VALID,162,VALID,0.976953,
2014-01-27, 03:36:05,VALID,916.319,VALID,0,VALID,96.36,VALID,0,VALID,18.8268,VALID,163,VALID,0.708594,
2014-01-27, 03:37:05,VALID,916.297,VALID,0,VALID,96.3905,VALID,0,VALID,18.8254,VALID,168,VALID,1.30039,
2014-01-27, 03:38:05,VALID,916.307,VALID,0,VALID,96.4438,VALID,0,VALID,18.8658,VALID,155,VALID,0.843359,
2014-01-27, 03:39:05,VALID,916.282,VALID,0,VALID,96.4591,VALID,0,VALID,18.8268,VALID,160,VALID,1.00391,
2014-01-27, 03:40:05,VALID,916.31,VALID,0,VALID,96.4515,VALID,0,VALID,18.8672,VALID,166,VALID,0.508203,
2014-01-27, 03:41:05,VALID,916.312,VALID,0,VALID,96.4896,VALID,0,VALID,18.8867,VALID,144,VALID,1.1082,
2014-01-27, 03:42:05,VALID,916.289,VALID,0,VALID,96.4972,VALID,0,VALID,18.8672,VALID,144,VALID,1.10039,
2014-01-27, 03:43:05,VALID,916.32,VALID,0,VALID,96.5124,VALID,0,VALID,18.824,VALID,144,VALID,0.766797,
2014-01-27, 03:44:05,VALID,916.294,VALID,0,VALID,96.5277,VALID,0,VALID,18.824,VALID,142,VALID,0.698047,